Location: Boston
(42.3580°N, 71.0600°W)
Time: 19:34:00
(UTC-05:00)

Vanguard 1 Rocket - All Passes

Search period start: 13 December 2017 00:00
Search period end: 23 December 2017 00:00
Orbit: 656 x 4222 km, 34.3° (Epoch: 13 December)

Date Brightness Start Highest point End Pass type
(mag) Time Alt. Az. Time Alt. Az. Time Alt. Az.
13 Dec - 15:06:03 10° S 15:12:51 26° SE 15:23:49 10° E daylight
13 Dec - 17:27:41 10° WSW 17:38:09 58° SSE 17:58:12 10° E visible
13 Dec - 19:52:20 10° W 20:07:08 64° S 20:31:52 10° ESE visible
13 Dec - 22:19:20 10° W 22:37:46 46° SSW 23:01:24 10° SSE visible
14 Dec - 00:52:23 10° W 01:07:02 20° SW 01:22:10 10° SSW visible
14 Dec - 13:59:19 10° SSE 14:02:40 13° SE 14:06:45 10° ESE daylight
14 Dec - 16:17:46 10° SW 16:26:21 46° SSE 16:42:27 10° E visible
14 Dec - 18:41:20 10° WSW 18:53:42 65° S 19:16:30 10° ESE visible
14 Dec - 21:07:06 10° W 21:23:43 54° SSW 21:48:21 10° SE visible
14 Dec - 23:36:23 10° W 23:53:48 30° SW 00:13:39 10° S visible
15 Dec - 15:08:32 10° SSW 15:15:22 31° SE 15:26:57 10° E daylight
15 Dec - 17:30:49 10° WSW 17:41:00 61° SSE 18:00:46 10° E visible
15 Dec - 19:55:34 10° W 20:09:54 61° SSW 20:34:04 10° ESE visible
15 Dec - 22:22:46 10° W 22:40:07 39° SSW 23:02:40 10° SSE visible
16 Dec - 00:58:47 10° WSW 01:09:05 14° SW 01:19:48 10° SSW visible
16 Dec - 14:00:35 10° S 14:05:03 17° SE 14:11:10 10° E daylight
16 Dec - 16:20:46 10° SW 16:29:07 51° SSE 16:45:09 10° E visible
16 Dec - 18:44:35 10° W 18:56:34 63° S 19:18:53 10° ESE visible
16 Dec - 21:10:24 10° W 21:26:18 48° SSW 21:50:01 10° SE visible
16 Dec - 23:40:40 10° W 23:55:59 24° SW 00:13:34 10° S visible
17 Dec - 15:11:16 10° SSW 15:18:00 36° SSE 15:29:54 10° E daylight
17 Dec - 17:34:02 10° WSW 17:43:55 62° S 18:03:18 10° E visible
17 Dec - 19:58:51 10° W 20:12:40 56° SSW 20:36:03 10° SE visible
17 Dec - 22:26:25 10° W 22:42:31 33° SW 23:03:27 10° SSE visible
18 Dec - 14:02:39 10° S 14:07:35 21° SE 14:14:51 10° E daylight
18 Dec - 16:23:53 10° WSW 16:32:00 54° SSE 16:47:49 10° E visible
18 Dec - 18:47:51 10° W 18:59:29 60° S 19:21:09 10° ESE visible
18 Dec - 21:13:50 10° W 21:28:55 42° SSW 21:51:21 10° SSE visible
18 Dec - 23:45:54 10° W 23:58:15 18° SW 00:12:18 10° SSW visible
19 Dec - 15:14:11 10° SW 15:20:48 41° SSE 15:32:47 10° E daylight
19 Dec - 17:37:18 10° WSW 17:46:55 61° S 18:05:46 10° ESE visible
19 Dec - 20:02:12 10° W 20:15:27 50° SSW 20:37:48 10° SE visible
19 Dec - 22:30:29 10° W 22:44:57 27° SW 23:03:38 10° S visible
20 Dec - 14:05:07 10° SSW 14:10:14 26° SE 14:18:11 10° E daylight
20 Dec - 16:27:05 10° WSW 16:34:59 56° S 16:50:27 10° E visible
20 Dec - 18:51:10 10° W 19:02:25 56° SSW 19:23:15 10° ESE visible
20 Dec - 21:17:27 10° W 21:31:32 35° SSW 21:52:16 10° SSE visible
20 Dec - 23:53:36 10° WSW 00:00:40 12° SW 00:08:18 10° SSW visible
21 Dec - 12:57:41 10° SSE 13:00:07 12° SE 13:02:59 10° ESE daylight
21 Dec - 15:17:14 10° SW 15:23:43 45° SSE 15:35:37 10° E daylight
21 Dec - 17:40:36 10° W 17:49:55 58° S 18:08:09 10° ESE visible
21 Dec - 20:05:38 10° W 20:18:16 43° SSW 20:39:16 10° SE visible
21 Dec - 22:35:11 10° W 22:47:29 20° SW 23:02:55 10° S visible
22 Dec - 14:07:52 10° SSW 14:13:01 30° SSE 14:21:21 10° E daylight
22 Dec - 16:30:21 10° WSW 16:38:02 56° S 16:53:04 10° ESE visible
22 Dec - 18:54:33 10° W 19:05:21 50° SSW 19:25:09 10° SE visible
22 Dec - 21:21:22 10° W 21:34:14 29° SSW 21:52:40 10° SSE visible
